Time,TemperatureF,DewpointF,PressureIn,WindDirection,WindDirectionDegrees,WindSpeedMPH,WindSpeedGustMPH,Humidity,HourlyPrecipIn,Conditions,Clouds,dailyrainin,SoftwareType,DateUTC
2013-06-29 00:01:00,65.6,59.3,29.62,SSW,207,0.0,0.0,80,0.00,,CLR,0.00,VWS V14.01,2013-06-29 04:01:00,
2013-06-29 00:06:00,65.2,59.2,29.62,SSW,207,0.0,0.0,81,0.00,,CLR,0.00,VWS V14.01,2013-06-29 04:06:00,
2013-06-29 00:11:00,65.1,59.5,29.62,SSW,207,0.0,0.0,82,0.00,,CLR,0.00,VWS V14.01,2013-06-29 04:11:00,
2013-06-29 00:16:00,65.0,59.4,29.62,SSW,212,0.0,0.0,82,0.00,,CLR,0.00,VWS V14.01,2013-06-29 04:16:00,
2013-06-29 00:21:00,64.9,59.3,29.62,WSW,250,0.0,0.0,82,0.00,,CLR,0.00,VWS V14.01,2013-06-29 04:21:00,
2013-06-29 00:26:00,65.0,59.4,29.62,SW,229,2.0,2.0,82,0.00,,CLR,0.00,VWS V14.01,2013-06-29 04:26:00,
2013-06-29 00:31:00,65.0,59.4,29.62,WSW,242,2.0,3.0,82,0.00,,CLR,0.00,VWS V14.01,2013-06-29 04:31:00,
2013-06-29 00:36:00,64.9,59.3,29.62,SW,222,1.0,2.0,82,0.00,,CLR,0.00,VWS V14.01,2013-06-29 04:36:00,
2013-06-29 00:41:00,64.8,59.5,29.61,SSW,207,0.0,1.0,83,0.00,,CLR,0.00,VWS V14.01,2013-06-29 04:41:00,
2013-06-29 00:46:00,64.6,59.3,29.61,SSW,207,0.0,0.0,83,0.00,,CLR,0.00,VWS V14.01,2013-06-29 04:46:00,
2013-06-29 00:51:00,64.4,59.5,29.62,SSW,205,0.0,0.0,84,0.00,,CLR,0.00,VWS V14.01,2013-06-29 04:51:00,
2013-06-29 00:56:00,64.2,59.3,29.62,SW,229,0.0,1.0,84,0.00,,CLR,0.00,VWS V14.01,2013-06-29 04:56:00,
2013-06-29 01:01:00,64.0,59.1,29.61,SW,229,0.0,0.0,84,0.00,,CLR,0.00,VWS V14.01,2013-06-29 05:01:00,
2013-06-29 01:06:00,63.7,59.1,29.62,SW,229,0.0,0.0,85,0.00,,CLR,0.00,VWS V14.01,2013-06-29 05:06:00,
2013-06-29 01:11:00,63.4,59.2,29.62,SW,229,0.0,0.0,86,0.00,,CLR,0.00,VWS V14.01,2013-06-29 05:11:00,
2013-06-29 01:16:00,63.2,59.3,29.62,SW,229,1.0,1.0,87,0.00,,CLR,0.00,VWS V14.01,2013-06-29 05:16:00,
2013-06-29 01:21:00,63.3,59.4,29.62,SW,226,1.0,1.0,87,0.00,,CLR,0.00,VWS V14.01,2013-06-29 05:21:00,
2013-06-29 01:26:00,63.3,59.4,29.62,SW,232,1.0,3.0,87,0.00,,CLR,0.00,VWS V14.01,2013-06-29 05:26:00,
2013-06-29 01:31:00,63.4,59.5,29.61,SW,236,2.0,5.0,87,0.00,,CLR,0.00,VWS V14.01,2013-06-29 05:31:00,
2013-06-29 01:36:00,63.4,59.5,29.61,SSW,203,3.0,5.0,87,0.00,,CLR,0.00,VWS V14.01,2013-06-29 05:36:00,
2013-06-29 01:41:00,63.3,59.4,29.61,South,184,3.0,5.0,87,0.00,,CLR,0.00,VWS V14.01,2013-06-29 05:41:00,
2013-06-29 01:46:00,63.4,59.5,29.61,SSW,211,3.0,4.0,87,0.00,,CLR,0.00,VWS V14.01,2013-06-29 05:46:00,
2013-06-29 01:51:00,63.3,59.4,29.61,SW,225,1.0,1.0,87,0.00,,CLR,0.00,VWS V14.01,2013-06-29 05:51:00,
2013-06-29 01:56:00,63.2,59.6,29.61,SW,224,1.0,1.0,88,0.00,,CLR,0.00,VWS V14.01,2013-06-29 05:56:00,
2013-06-29 02:01:00,63.0,59.4,29.61,SSW,201,1.0,3.0,88,0.00,,CLR,0.00,VWS V14.01,2013-06-29 06:01:00,
2013-06-29 02:06:00,63.0,59.4,29.61,South,177,2.0,2.0,88,0.00,,CLR,0.00,VWS V14.01,2013-06-29 06:06:00,
2013-06-29 02:11:00,62.9,59.6,29.61,South,172,2.0,3.0,89,0.00,,CLR,0.00,VWS V14.01,2013-06-29 06:11:00,
2013-06-29 02:16:00,62.8,59.5,29.60,SW,224,1.0,2.0,89,0.00,,CLR,0.00,VWS V14.01,2013-06-29 06:16:00,
2013-06-29 02:21:00,62.8,59.5,29.60,SSW,207,2.0,3.0,89,0.00,,CLR,0.00,VWS V14.01,2013-06-29 06:21:00,
2013-06-29 02:26:00,62.7,59.4,29.60,SSW,207,1.0,2.0,89,0.00,,CLR,0.00,VWS V14.01,2013-06-29 06:26:00,
2013-06-29 02:31:00,62.6,59.3,29.60,SW,226,3.0,3.0,89,0.00,,CLR,0.00,VWS V14.01,2013-06-29 06:31:00,
2013-06-29 02:36:00,62.7,59.4,29.60,SSW,201,2.0,3.0,89,0.00,,CLR,0.00,VWS V14.01,2013-06-29 06:36:00,
2013-06-29 02:41:00,62.8,59.5,29.60,SSW,208,3.0,6.0,89,0.00,,CLR,0.00,VWS V14.01,2013-06-29 06:41:00,
2013-06-29 02:46:00,63.0,59.7,29.60,SW,233,2.0,6.0,89,0.00,,CLR,0.00,VWS V14.01,2013-06-29 06:46:00,
2013-06-29 02:51:00,63.1,59.8,29.60,SSE,154,2.0,5.0,89,0.00,,CLR,0.00,VWS V14.01,2013-06-29 06:51:00,
2013-06-29 02:56:00,63.1,59.8,29.60,SW,236,1.0,4.0,89,0.00,,CLR,0.00,VWS V14.01,2013-06-29 06:56:00,
2013-06-29 03:01:00,63.2,59.9,29.60,SW,226,2.0,3.0,89,0.00,,CLR,0.00,VWS V14.01,2013-06-29 07:01:00,
2013-06-29 03:06:00,63.1,59.8,29.59,SSW,198,2.0,3.0,89,0.00,,CLR,0.00,VWS V14.01,2013-06-29 07:06:00,
2013-06-29 03:11:00,63.0,59.7,29.59,SSW,212,2.0,4.0,89,0.00,,CLR,0.00,VWS V14.01,2013-06-29 07:11:00,
2013-06-29 03:16:00,63.0,59.7,29.60,SW,221,3.0,5.0,89,0.00,,CLR,0.00,VWS V14.01,2013-06-29 07:16:00,
2013-06-29 03:21:00,63.0,59.7,29.59,WSW,241,2.0,2.0,89,0.00,,CLR,0.00,VWS V14.01,2013-06-29 07:21:00,
2013-06-29 03:26:00,63.0,59.7,29.59,SSW,206,2.0,5.0,89,0.00,,CLR,0.00,VWS V14.01,2013-06-29 07:26:00,
2013-06-29 03:31:00,63.0,59.7,29.59,SSW,206,2.0,4.0,89,0.00,,CLR,0.00,VWS V14.01,2013-06-29 07:31:00,
2013-06-29 03:36:00,63.1,60.1,29.60,SW,226,4.0,4.0,90,0.00,,CLR,0.00,VWS V14.01,2013-06-29 07:36:00,
2013-06-29 03:41:00,63.1,60.1,29.60,SW,229,3.0,6.0,90,0.00,,CLR,0.00,VWS V14.01,2013-06-29 07:41:00,
2013-06-29 03:46:00,63.1,60.1,29.59,SW,215,3.0,6.0,90,0.00,,SCT110,0.00,VWS V14.01,2013-06-29 07:46:00,
2013-06-29 03:51:00,63.2,60.2,29.59,South,186,2.0,6.0,90,0.00,,SCT110,0.00,VWS V14.01,2013-06-29 07:51:00,
2013-06-29 03:56:00,63.2,60.2,29.59,SSW,207,3.0,4.0,90,0.00,,SCT110,0.00,VWS V14.01,2013-06-29 07:56:00,
2013-06-29 04:01:00,63.2,60.2,29.59,SW,219,1.0,2.0,90,0.00,,OVC110,0.00,VWS V14.01,2013-06-29 08:01:00,
2013-06-29 04:06:00,63.2,60.2,29.60,SW,221,2.0,5.0,90,0.00,,OVC110,0.00,VWS V14.01,2013-06-29 08:06:00,
2013-06-29 04:11:00,63.2,60.2,29.60,SW,219,1.0,2.0,90,0.00,,OVC110,0.00,VWS V14.01,2013-06-29 08:11:00,
2013-06-29 04:16:00,63.3,60.3,29.60,SW,229,2.0,2.0,90,0.00,,OVC110,0.00,VWS V14.01,2013-06-29 08:16:00,
2013-06-29 04:21:00,63.2,60.2,29.60,WSW,239,2.0,4.0,90,0.00,,OVC110,0.00,VWS V14.01,2013-06-29 08:21:00,
2013-06-29 04:26:00,63.2,60.2,29.59,SW,221,3.0,4.0,90,0.00,,OVC110,0.00,VWS V14.01,2013-06-29 08:26:00,
2013-06-29 04:31:00,63.0,60.3,29.59,SW,221,3.0,5.0,91,0.00,,SCT110,0.00,VWS V14.01,2013-06-29 08:31:00,
2013-06-29 04:36:00,63.0,60.3,29.59,SW,235,1.0,4.0,91,0.00,,SCT110,0.00,VWS V14.01,2013-06-29 08:36:00,
2013-06-29 04:41:00,62.9,60.2,29.59,SW,226,2.0,3.0,91,0.00,,SCT110,0.00,VWS V14.01,2013-06-29 08:41:00,
2013-06-29 04:46:00,62.8,60.1,29.60,SW,226,1.0,2.0,91,0.00,,SCT100,0.00,VWS V14.01,2013-06-29 08:46:00,
2013-06-29 04:51:00,62.6,59.9,29.60,SW,232,1.0,1.0,91,0.00,,SCT100,0.00,VWS V14.01,2013-06-29 08:51:00,
2013-06-29 04:56:00,62.6,59.9,29.60,SSW,211,1.0,2.0,91,0.00,,SCT100,0.00,VWS V14.01,2013-06-29 08:56:00,
2013-06-29 05:01:00,62.5,59.8,29.60,SW,217,3.0,3.0,91,0.00,,SCT100,0.00,VWS V14.01,2013-06-29 09:01:00,
2013-06-29 05:06:00,62.5,59.8,29.60,SW,232,2.0,3.0,91,0.00,,SCT100,0.00,VWS V14.01,2013-06-29 09:06:00,
2013-06-29 05:11:00,62.5,59.8,29.60,SW,226,0.0,0.0,91,0.00,,SCT100,0.00,VWS V14.01,2013-06-29 09:11:00,
2013-06-29 05:16:00,62.5,59.8,29.60,SW,226,0.0,1.0,91,0.00,,SCT100,0.00,VWS V14.01,2013-06-29 09:16:00,
2013-06-29 05:21:00,62.4,59.7,29.60,SW,214,0.0,0.0,91,0.00,,SCT100,0.00,VWS V14.01,2013-06-29 09:21:00,
2013-06-29 05:26:00,62.4,60.0,29.60,SSW,208,3.0,3.0,92,0.00,,SCT100,0.00,VWS V14.01,2013-06-29 09:26:00,
2013-06-29 05:31:00,62.4,60.0,29.61,SW,233,0.0,2.0,92,0.00,,SCT110,0.00,VWS V14.01,2013-06-29 09:31:00,
2013-06-29 05:36:00,62.4,60.0,29.60,SW,230,1.0,2.0,92,0.00,,SCT110,0.00,VWS V14.01,2013-06-29 09:36:00,
2013-06-29 05:41:00,62.5,60.2,29.60,West,260,0.0,1.0,92,0.00,,SCT110,0.00,VWS V14.01,2013-06-29 09:41:00,
2013-06-29 05:46:00,62.6,60.2,29.60,SSW,199,1.0,3.0,92,0.00,,BKN110,0.00,VWS V14.01,2013-06-29 09:46:00,
2013-06-29 05:51:00,62.6,60.2,29.61,SW,214,0.0,2.0,92,0.00,,BKN110,0.00,VWS V14.01,2013-06-29 09:51:00,
2013-06-29 05:56:00,62.7,60.3,29.61,SW,228,0.0,0.0,92,0.00,,BKN110,0.00,VWS V14.01,2013-06-29 09:56:00,
2013-06-29 06:01:00,62.7,60.3,29.61,SSW,208,1.0,2.0,92,0.00,,OVC110,0.00,VWS V14.01,2013-06-29 10:01:00,
2013-06-29 06:06:00,62.8,60.1,29.61,SW,229,1.0,3.0,91,0.00,,OVC110,0.00,VWS V14.01,2013-06-29 10:06:00,
2013-06-29 06:11:00,62.8,60.1,29.61,SW,228,2.0,3.0,91,0.00,,OVC110,0.00,VWS V14.01,2013-06-29 10:11:00,
2013-06-29 06:16:00,62.9,60.2,29.61,WSW,240,3.0,4.0,91,0.00,,OVC110,0.00,VWS V14.01,2013-06-29 10:16:00,
2013-06-29 06:21:00,63.0,60.3,29.61,SW,232,0.0,3.0,91,0.00,,OVC110,0.00,VWS V14.01,2013-06-29 10:21:00,
2013-06-29 06:26:00,63.2,60.5,29.61,SW,229,3.0,4.0,91,0.00,,OVC110,0.00,VWS V14.01,2013-06-29 10:26:00,
2013-06-29 06:31:00,63.4,60.7,29.61,SW,221,2.0,3.0,91,0.00,,OVC100,0.00,VWS V14.01,2013-06-29 10:31:00,
2013-06-29 06:36:00,63.7,60.7,29.61,WSW,240,2.0,3.0,90,0.00,,OVC100,0.00,VWS V14.01,2013-06-29 10:36:00,
2013-06-29 06:41:00,63.7,60.7,29.61,SSW,201,1.0,3.0,90,0.00,,OVC100,0.00,VWS V14.01,2013-06-29 10:41:00,
2013-06-29 06:46:00,63.6,60.6,29.62,SSW,195,3.0,5.0,90,0.00,,SCT110,0.00,VWS V14.01,2013-06-29 10:46:00,
2013-06-29 06:51:00,63.5,60.5,29.62,South,188,1.0,2.0,90,0.00,,SCT110,0.00,VWS V14.01,2013-06-29 10:51:00,
2013-06-29 06:56:00,63.4,60.7,29.62,SE,135,2.0,2.0,91,0.00,,SCT110,0.00,VWS V14.01,2013-06-29 10:56:00,
2013-06-29 07:01:00,63.4,60.7,29.62,WSW,238,4.0,6.0,91,0.00,,SCT090,0.00,VWS V14.01,2013-06-29 11:01:00,
2013-06-29 07:06:00,63.8,61.1,29.62,SW,214,3.0,4.0,91,0.00,,SCT090,0.00,VWS V14.01,2013-06-29 11:06:00,
2013-06-29 07:11:00,63.9,60.9,29.62,SSW,211,3.0,5.0,90,0.00,,SCT090,0.00,VWS V14.01,2013-06-29 11:11:00,
2013-06-29 07:16:00,63.9,60.9,29.62,SSW,210,3.0,4.0,90,0.00,,SCT090,0.00,VWS V14.01,2013-06-29 11:16:00,
2013-06-29 07:21:00,63.9,60.9,29.62,SW,223,1.0,2.0,90,0.00,,SCT090,0.00,VWS V14.01,2013-06-29 11:21:00,
2013-06-29 07:26:00,64.1,61.1,29.62,SW,219,3.0,3.0,90,0.00,,SCT090,0.00,VWS V14.01,2013-06-29 11:26:00,
2013-06-29 07:31:00,64.2,61.2,29.62,SW,223,1.0,5.0,90,0.00,,BKN090,0.00,VWS V14.01,2013-06-29 11:31:00,
2013-06-29 07:36:00,64.3,61.3,29.62,SW,221,3.0,6.0,90,0.00,,BKN090,0.00,VWS V14.01,2013-06-29 11:36:00,
2013-06-29 07:41:00,64.4,61.4,29.62,SSW,200,2.0,3.0,90,0.00,,BKN090,0.00,VWS V14.01,2013-06-29 11:41:00,
2013-06-29 07:46:00,64.6,61.6,29.63,SW,219,2.0,3.0,90,0.00,,OVC090,0.00,VWS V14.01,2013-06-29 11:46:00,
2013-06-29 07:51:00,64.9,61.9,29.62,WSW,248,2.0,3.0,90,0.00,,OVC090,0.00,VWS V14.01,2013-06-29 11:51:00,
2013-06-29 07:56:00,65.0,61.7,29.62,SW,226,4.0,6.0,89,0.00,,OVC090,0.00,VWS V14.01,2013-06-29 11:56:00,
2013-06-29 08:01:00,65.1,61.8,29.62,West,271,2.0,5.0,89,0.00,,OVC090,0.00,VWS V14.01,2013-06-29 12:01:00,
2013-06-29 08:06:00,65.1,61.8,29.63,SW,221,2.0,4.0,89,0.00,,OVC090,0.00,VWS V14.01,2013-06-29 12:06:00,
2013-06-29 08:11:00,65.2,61.9,29.63,SSW,198,2.0,5.0,89,0.00,,OVC090,0.00,VWS V14.01,2013-06-29 12:11:00,
2013-06-29 08:16:00,65.3,62.0,29.63,SW,217,5.0,5.0,89,0.00,,OVC090,0.00,VWS V14.01,2013-06-29 12:16:00,
2013-06-29 08:21:00,65.3,62.0,29.63,SW,229,6.0,6.0,89,0.00,,OVC090,0.00,VWS V14.01,2013-06-29 12:21:00,
2013-06-29 08:26:00,65.2,61.9,29.63,WSW,248,4.0,7.0,89,0.00,,OVC090,0.00,VWS V14.01,2013-06-29 12:26:00,
2013-06-29 08:31:00,65.1,61.8,29.63,SW,218,4.0,7.0,89,0.00,,OVC075,0.00,VWS V14.01,2013-06-29 12:31:00,
2013-06-29 08:36:00,65.0,61.7,29.63,SW,231,3.0,6.0,89,0.00,,OVC075,0.00,VWS V14.01,2013-06-29 12:36:00,
2013-06-29 08:41:00,65.1,61.8,29.63,SSW,208,5.0,9.0,89,0.00,,OVC075,0.00,VWS V14.01,2013-06-29 12:41:00,
2013-06-29 08:46:00,65.2,62.2,29.63,SW,221,4.0,5.0,90,0.00,,OVC075,0.00,VWS V14.01,2013-06-29 12:46:00,
2013-06-29 08:51:00,65.4,62.4,29.63,SSW,211,2.0,5.0,90,0.00,,OVC075,0.00,VWS V14.01,2013-06-29 12:51:00,
2013-06-29 08:56:00,65.5,62.2,29.64,SSE,158,3.0,6.0,89,0.00,,OVC075,0.00,VWS V14.01,2013-06-29 12:56:00,
2013-06-29 09:01:00,65.6,62.3,29.64,SSW,207,4.0,5.0,89,0.00,,OVC075,0.00,VWS V14.01,2013-06-29 13:01:00,
2013-06-29 09:06:00,65.9,62.6,29.64,SSW,208,3.0,6.0,89,0.00,,OVC075,0.00,VWS V14.01,2013-06-29 13:06:00,
2013-06-29 09:11:00,66.0,62.7,29.64,SW,230,3.0,6.0,89,0.00,,OVC075,0.00,VWS V14.01,2013-06-29 13:11:00,
2013-06-29 09:16:00,66.2,62.5,29.64,SW,217,4.0,6.0,88,0.00,,OVC075,0.00,VWS V14.01,2013-06-29 13:16:00,
2013-06-29 09:21:00,66.6,62.9,29.64,SW,228,4.0,5.0,88,0.00,,OVC075,0.00,VWS V14.01,2013-06-29 13:21:00,
2013-06-29 09:26:00,66.8,62.8,29.64,SW,214,3.0,6.0,87,0.00,,OVC075,0.00,VWS V14.01,2013-06-29 13:26:00,
2013-06-29 09:31:00,66.7,62.7,29.64,West,280,2.0,4.0,87,0.00,,OVC075,0.00,VWS V14.01,2013-06-29 13:31:00,
2013-06-29 09:36:00,67.1,63.1,29.64,West,260,2.0,4.0,87,0.00,,OVC075,0.00,VWS V14.01,2013-06-29 13:36:00,
2013-06-29 09:41:00,67.5,63.2,29.64,West,260,3.0,8.0,86,0.00,,OVC075,0.00,VWS V14.01,2013-06-29 13:41:00,
2013-06-29 09:46:00,68.4,63.7,29.64,SSW,212,3.0,4.0,85,0.00,,OVC070,0.00,VWS V14.01,2013-06-29 13:46:00,
2013-06-29 09:51:00,68.7,63.3,29.64,WSW,255,0.0,4.0,83,0.00,,OVC070,0.00,VWS V14.01,2013-06-29 13:51:00,
2013-06-29 09:56:00,68.7,63.7,29.64,WSW,252,2.0,5.0,84,0.00,,OVC070,0.00,VWS V14.01,2013-06-29 13:56:00,
2013-06-29 10:01:00,68.8,63.4,29.64,West,269,2.0,6.0,83,0.00,,OVC075,0.00,VWS V14.01,2013-06-29 14:01:00,
2013-06-29 10:06:00,68.7,63.3,29.63,SSW,212,3.0,7.0,83,0.00,,OVC075,0.00,VWS V14.01,2013-06-29 14:06:00,
2013-06-29 10:11:00,68.9,64.2,29.64,West,274,2.0,5.0,85,0.00,,OVC075,0.00,VWS V14.01,2013-06-29 14:11:00,
2013-06-29 10:16:00,69.2,64.2,29.63,SW,214,0.0,2.0,84,0.00,,OVC075,0.00,VWS V14.01,2013-06-29 14:16:00,
2013-06-29 10:21:00,69.4,64.0,29.63,West,267,2.0,6.0,83,0.00,,OVC075,0.00,VWS V14.01,2013-06-29 14:21:00,
2013-06-29 10:26:00,69.7,64.3,29.63,SSW,203,3.0,4.0,83,0.00,,OVC075,0.00,VWS V14.01,2013-06-29 14:26:00,
2013-06-29 10:31:00,69.8,64.1,29.63,SSW,205,3.0,5.0,82,0.00,,OVC080,0.00,VWS V14.01,2013-06-29 14:31:00,
2013-06-29 10:36:00,70.3,64.2,29.63,WNW,301,2.0,7.0,81,0.00,,OVC080,0.00,VWS V14.01,2013-06-29 14:36:00,
2013-06-29 10:41:00,70.5,64.4,29.63,WNW,285,2.0,5.0,81,0.00,,OVC080,0.00,VWS V14.01,2013-06-29 14:41:00,
2013-06-29 10:46:00,71.2,64.7,29.63,West,280,2.0,4.0,80,0.00,,BKN080,0.00,VWS V14.01,2013-06-29 14:46:00,
2013-06-29 10:51:00,72.0,65.5,29.63,East,90,0.0,1.0,80,0.00,,BKN080,0.00,VWS V14.01,2013-06-29 14:51:00,
2013-06-29 10:56:00,72.7,65.4,29.63,WSW,250,5.0,6.0,78,0.00,,BKN080,0.00,VWS V14.01,2013-06-29 14:56:00,
2013-06-29 11:01:00,72.3,64.3,29.63,NW,310,1.0,4.0,76,0.00,,BKN080,0.00,VWS V14.01,2013-06-29 15:01:00,
2013-06-29 11:06:00,71.8,64.2,29.63,West,271,3.0,6.0,77,0.00,,BKN080,0.00,VWS V14.01,2013-06-29 15:06:00,
2013-06-29 11:11:00,72.5,64.5,29.63,WSW,243,2.0,4.0,76,0.00,,BKN080,0.00,VWS V14.01,2013-06-29 15:11:00,
2013-06-29 11:16:00,73.1,64.3,29.63,WSW,248,4.0,6.0,74,0.00,,BKN080,0.00,VWS V14.01,2013-06-29 15:16:00,
2013-06-29 11:21:00,72.6,64.2,29.63,West,275,1.0,6.0,75,0.00,,BKN080,0.00,VWS V14.01,2013-06-29 15:21:00,
2013-06-29 11:26:00,73.2,65.2,29.63,SSE,165,5.0,7.0,76,0.00,,BKN080,0.00,VWS V14.01,2013-06-29 15:26:00,
2013-06-29 11:31:00,73.4,65.0,29.63,West,271,3.0,5.0,75,0.00,,OVC080,0.00,VWS V14.01,2013-06-29 15:31:00,
2013-06-29 11:36:00,73.5,65.5,29.63,SW,217,2.0,7.0,76,0.00,,OVC080,0.00,VWS V14.01,2013-06-29 15:36:00,
2013-06-29 11:41:00,73.7,64.5,29.63,West,267,3.0,6.0,73,0.00,,OVC080,0.00,VWS V14.01,2013-06-29 15:41:00,
2013-06-29 11:46:00,73.6,64.8,29.63,SW,225,4.0,4.0,74,0.00,,OVC075,0.00,VWS V14.01,2013-06-29 15:46:00,
2013-06-29 11:51:00,73.8,65.0,29.63,SSW,208,2.0,3.0,74,0.00,,OVC075,0.00,VWS V14.01,2013-06-29 15:51:00,
2013-06-29 11:56:00,73.4,64.6,29.63,SW,226,2.0,4.0,74,0.00,,OVC075,0.00,VWS V14.01,2013-06-29 15:56:00,
2013-06-29 12:01:00,73.3,64.1,29.63,South,191,5.0,9.0,73,0.00,,BKN075,0.00,VWS V14.01,2013-06-29 16:01:00,
2013-06-29 12:06:00,73.8,63.8,29.63,SSW,211,4.0,10.0,71,0.00,,BKN075,0.00,VWS V14.01,2013-06-29 16:06:00,
2013-06-29 12:11:00,74.2,63.8,29.63,South,187,6.0,9.0,70,0.00,,BKN075,0.00,VWS V14.01,2013-06-29 16:11:00,
2013-06-29 12:16:00,74.2,63.8,29.63,SW,232,5.0,9.0,70,0.00,,BKN075,0.00,VWS V14.01,2013-06-29 16:16:00,
2013-06-29 12:21:00,74.3,63.5,29.63,SSW,210,4.0,8.0,69,0.00,,BKN075,0.00,VWS V14.01,2013-06-29 16:21:00,
2013-06-29 12:26:00,74.5,63.7,29.63,SSW,208,6.0,10.0,69,0.00,,BKN075,0.00,VWS V14.01,2013-06-29 16:26:00,
2013-06-29 12:31:00,74.5,64.1,29.63,SW,235,6.0,9.0,70,0.00,,BKN085,0.00,VWS V14.01,2013-06-29 16:31:00,
2013-06-29 12:36:00,75.0,63.7,29.63,SW,235,6.0,6.0,68,0.00,,BKN085,0.00,VWS V14.01,2013-06-29 16:36:00,
2013-06-29 12:41:00,75.7,64.4,29.63,SSE,150,5.0,10.0,68,0.00,,BKN085,0.00,VWS V14.01,2013-06-29 16:41:00,
2013-06-29 12:46:00,75.9,65.4,29.63,WSW,239,6.0,8.0,70,0.00,,BKN120,0.00,VWS V14.01,2013-06-29 16:46:00,
2013-06-29 12:51:00,76.0,64.3,29.63,SSW,194,1.0,9.0,67,0.00,,BKN120,0.00,VWS V14.01,2013-06-29 16:51:00,
2013-06-29 12:56:00,76.4,64.6,29.63,SW,235,3.0,4.0,67,0.00,,BKN120,0.00,VWS V14.01,2013-06-29 16:56:00,
2013-06-29 13:01:00,76.8,64.6,29.62,North,350,1.0,6.0,66,0.00,,BKN120,0.00,VWS V14.01,2013-06-29 17:01:00,
2013-06-29 13:06:00,78.1,66.3,29.62,West,269,1.0,2.0,67,0.00,,BKN120,0.00,VWS V14.01,2013-06-29 17:06:00,
2013-06-29 13:11:00,77.6,63.6,29.62,SSW,211,5.0,11.0,62,0.00,,BKN120,0.00,VWS V14.01,2013-06-29 17:11:00,
2013-06-29 13:16:00,77.1,64.0,29.62,SSW,193,4.0,6.0,64,0.00,,BKN120,0.00,VWS V14.01,2013-06-29 17:16:00,
2013-06-29 13:21:00,77.1,64.9,29.62,WSW,250,2.0,6.0,66,0.00,,BKN120,0.00,VWS V14.01,2013-06-29 17:21:00,
2013-06-29 13:26:00,76.6,64.0,29.62,WSW,255,7.0,11.0,65,0.00,,BKN120,0.00,VWS V14.01,2013-06-29 17:26:00,
2013-06-29 13:31:00,76.0,65.1,29.62,WSW,240,6.0,10.0,69,0.00,,BKN120,0.00,VWS V14.01,2013-06-29 17:31:00,
2013-06-29 13:36:00,75.5,65.8,29.62,SW,232,10.0,11.0,72,0.00,,BKN090,0.00,VWS V14.01,2013-06-29 17:36:00,
2013-06-29 13:41:00,75.0,65.4,29.62,SW,219,4.0,10.0,72,0.00,,BKN090,0.00,VWS V14.01,2013-06-29 17:41:00,
2013-06-29 13:46:00,75.0,65.4,29.62,SW,236,7.0,12.0,72,0.00,,BKN100,0.00,VWS V14.01,2013-06-29 17:46:00,
2013-06-29 13:51:00,75.0,65.4,29.61,SSW,208,8.0,8.0,72,0.00,,BKN100,0.00,VWS V14.01,2013-06-29 17:51:00,
2013-06-29 13:56:00,75.4,64.9,29.62,SSW,210,4.0,11.0,70,0.00,,BKN100,0.00,VWS V14.01,2013-06-29 17:56:00,
2013-06-29 14:01:00,74.9,64.9,29.62,WSW,248,9.0,11.0,71,0.00,,BKN100,0.00,VWS V14.01,2013-06-29 18:01:00,
2013-06-29 14:06:00,74.6,65.4,29.62,SW,235,7.0,10.0,73,0.00,,BKN110,0.00,VWS V14.01,2013-06-29 18:06:00,
2013-06-29 14:11:00,74.4,65.6,29.62,SSE,160,6.0,7.0,74,0.00,,BKN110,0.00,VWS V14.01,2013-06-29 18:11:00,
2013-06-29 14:16:00,74.5,65.7,29.62,SSW,211,6.0,9.0,74,0.00,,BKN110,0.00,VWS V14.01,2013-06-29 18:16:00,
2013-06-29 14:21:00,74.7,65.1,29.62,South,186,5.0,10.0,72,0.00,,BKN110,0.00,VWS V14.01,2013-06-29 18:21:00,
2013-06-29 14:26:00,75.0,65.0,29.62,SSW,203,5.0,7.0,71,0.00,,BKN110,0.00,VWS V14.01,2013-06-29 18:26:00,
2013-06-29 14:31:00,75.7,65.2,29.62,SSE,153,6.0,11.0,70,0.00,,BKN110,0.00,VWS V14.01,2013-06-29 18:31:00,
2013-06-29 14:36:00,76.6,64.8,29.61,SW,217,4.0,6.0,67,0.00,,SCT120,0.00,VWS V14.01,2013-06-29 18:36:00,
2013-06-29 14:41:00,77.4,64.7,29.61,SSW,207,4.0,8.0,65,0.00,,SCT120,0.00,VWS V14.01,2013-06-29 18:41:00,
2013-06-29 14:46:00,77.4,64.3,29.61,SSW,197,4.0,10.0,64,0.00,,SCT120,0.00,VWS V14.01,2013-06-29 18:46:00,
2013-06-29 14:51:00,77.5,65.7,29.62,SW,231,8.0,8.0,67,0.00,,SCT120,0.00,VWS V14.01,2013-06-29 18:51:00,
2013-06-29 14:56:00,78.5,65.8,29.61,SW,219,1.0,7.0,65,0.00,,SCT120,0.00,VWS V14.01,2013-06-29 18:56:00,
2013-06-29 15:01:00,78.0,64.4,29.61,WSW,257,1.0,7.0,63,0.00,,CLR,0.00,VWS V14.01,2013-06-29 19:01:00,
2013-06-29 15:06:00,78.1,64.9,29.61,South,184,5.0,9.0,64,0.00,,CLR,0.00,VWS V14.01,2013-06-29 19:06:00,
2013-06-29 15:11:00,78.3,65.6,29.61,South,174,6.0,6.0,65,0.00,,CLR,0.00,VWS V14.01,2013-06-29 19:11:00,
2013-06-29 15:16:00,78.3,64.2,29.61,WSW,253,0.0,7.0,62,0.00,,CLR,0.00,VWS V14.01,2013-06-29 19:16:00,
2013-06-29 15:21:00,78.5,64.9,29.61,WSW,248,2.0,7.0,63,0.00,,CLR,0.00,VWS V14.01,2013-06-29 19:21:00,
2013-06-29 15:26:00,78.7,65.1,29.61,SW,218,9.0,9.0,63,0.00,,CLR,0.00,VWS V14.01,2013-06-29 19:26:00,
2013-06-29 15:31:00,78.7,64.6,29.62,SSW,211,6.0,9.0,62,0.00,,CLR,0.00,VWS V14.01,2013-06-29 19:31:00,
2013-06-29 15:36:00,79.1,65.4,29.62,WSW,249,7.0,8.0,63,0.00,,SCT029,0.00,VWS V14.01,2013-06-29 19:36:00,
2013-06-29 15:41:00,79.1,63.6,29.61,SW,221,2.0,7.0,59,0.00,,SCT029,0.00,VWS V14.01,2013-06-29 19:41:00,
2013-06-29 15:46:00,79.2,64.1,29.61,WSW,253,3.0,7.0,60,0.00,,SCT120,0.00,VWS V14.01,2013-06-29 19:46:00,
2013-06-29 15:51:00,79.5,64.4,29.61,SSW,197,2.0,8.0,60,0.00,,SCT120,0.00,VWS V14.01,2013-06-29 19:51:00,
2013-06-29 15:56:00,79.8,64.7,29.61,SE,125,5.0,9.0,60,0.00,,SCT120,0.00,VWS V14.01,2013-06-29 19:56:00,
2013-06-29 16:01:00,79.4,64.8,29.61,South,190,3.0,8.0,61,0.00,,SCT120,0.00,VWS V14.01,2013-06-29 20:01:00,
2013-06-29 16:06:00,79.4,64.3,29.61,SSW,201,5.0,9.0,60,0.00,,SCT120,0.00,VWS V14.01,2013-06-29 20:06:00,
2013-06-29 16:11:00,79.0,64.9,29.62,SSW,207,5.0,8.0,62,0.00,,SCT120,0.00,VWS V14.01,2013-06-29 20:11:00,
2013-06-29 16:16:00,78.8,64.2,29.62,SSW,198,6.0,10.0,61,0.00,,SCT120,0.00,VWS V14.01,2013-06-29 20:16:00,
2013-06-29 16:21:00,78.5,64.4,29.62,SW,225,10.0,12.0,62,0.00,,SCT120,0.00,VWS V14.01,2013-06-29 20:21:00,
2013-06-29 16:26:00,78.3,63.8,29.62,SW,233,11.0,13.0,61,0.00,,SCT120,0.00,VWS V14.01,2013-06-29 20:26:00,
2013-06-29 16:31:00,78.0,64.4,29.62,SW,219,5.0,9.0,63,0.00,,CLR,0.00,VWS V14.01,2013-06-29 20:31:00,
2013-06-29 16:36:00,78.1,64.9,29.62,SW,217,7.0,9.0,64,0.00,,CLR,0.00,VWS V14.01,2013-06-29 20:36:00,
2013-06-29 16:41:00,78.3,64.2,29.62,South,183,8.0,15.0,62,0.00,,CLR,0.00,VWS V14.01,2013-06-29 20:41:00,
2013-06-29 16:46:00,77.8,64.7,29.61,WSW,252,8.0,13.0,64,0.00,,CLR,0.00,VWS V14.01,2013-06-29 20:46:00,
2013-06-29 16:51:00,77.7,65.0,29.61,SSW,198,10.0,12.0,65,0.00,,BKN044,0.00,VWS V14.01,2013-06-29 20:51:00,
2013-06-29 16:56:00,76.5,64.3,29.61,WSW,255,6.0,14.0,66,0.00,,BKN044,0.00,VWS V14.01,2013-06-29 20:56:00,
2013-06-29 17:01:00,76.7,65.3,29.61,SSW,212,4.0,11.0,68,0.00,,BKN044,0.00,VWS V14.01,2013-06-29 21:01:00,
2013-06-29 17:06:00,76.9,65.1,29.62,West,264,7.0,11.0,67,0.00,,BKN110,0.00,VWS V14.01,2013-06-29 21:06:00,
2013-06-29 17:11:00,77.0,65.2,29.62,WSW,252,12.0,12.0,67,0.00,,BKN110,0.00,VWS V14.01,2013-06-29 21:11:00,
2013-06-29 17:16:00,76.9,65.5,29.62,WSW,243,10.0,12.0,68,0.00,,BKN110,0.00,VWS V14.01,2013-06-29 21:16:00,
2013-06-29 17:21:00,77.3,65.9,29.62,SW,224,4.0,12.0,68,0.00,,BKN110,0.00,VWS V14.01,2013-06-29 21:21:00,
2013-06-29 17:26:00,77.3,64.6,29.62,South,184,8.0,13.0,65,0.00,,BKN110,0.00,VWS V14.01,2013-06-29 21:26:00,
2013-06-29 17:31:00,77.1,64.0,29.62,WSW,239,8.0,9.0,64,0.00,,CLR,0.00,VWS V14.01,2013-06-29 21:31:00,
2013-06-29 17:36:00,76.8,64.2,29.62,SW,235,5.0,11.0,65,0.00,,CLR,0.00,VWS V14.01,2013-06-29 21:36:00,
2013-06-29 17:41:00,76.4,64.2,29.62,SW,228,10.0,13.0,66,0.00,,CLR,0.00,VWS V14.01,2013-06-29 21:41:00,
2013-06-29 17:46:00,76.3,64.6,29.63,WSW,246,4.0,11.0,67,0.00,,CLR,0.00,VWS V14.01,2013-06-29 21:46:00,
2013-06-29 17:51:00,76.2,64.4,29.62,WSW,240,5.0,7.0,67,0.00,,SCT120,0.00,VWS V14.01,2013-06-29 21:51:00,
2013-06-29 17:56:00,76.1,64.4,29.62,WSW,257,4.0,9.0,67,0.00,,SCT120,0.00,VWS V14.01,2013-06-29 21:56:00,
2013-06-29 18:01:00,76.2,64.4,29.62,SW,229,6.0,8.0,67,0.00,,SCT120,0.00,VWS V14.01,2013-06-29 22:01:00,
2013-06-29 18:06:00,76.5,64.7,29.62,South,186,1.0,5.0,67,0.00,,SCT120,0.00,VWS V14.01,2013-06-29 22:06:00,
2013-06-29 18:11:00,76.9,63.8,29.62,SSW,212,9.0,10.0,64,0.00,,SCT120,0.00,VWS V14.01,2013-06-29 22:11:00,
2013-06-29 18:16:00,76.8,64.2,29.62,SW,233,5.0,8.0,65,0.00,,SCT120,0.00,VWS V14.01,2013-06-29 22:16:00,
2013-06-29 18:21:00,76.6,64.0,29.62,South,186,5.0,9.0,65,0.00,,SCT120,0.00,VWS V14.01,2013-06-29 22:21:00,
2013-06-29 18:26:00,76.9,64.2,29.62,West,274,2.0,9.0,65,0.00,,SCT120,0.00,VWS V14.01,2013-06-29 22:26:00,
2013-06-29 18:31:00,77.3,65.1,29.62,WSW,242,3.0,4.0,66,0.00,,SCT120,0.00,VWS V14.01,2013-06-29 22:31:00,
2013-06-29 18:36:00,77.8,65.1,29.62,SSW,200,0.0,4.0,65,0.00,,BKN120,0.00,VWS V14.01,2013-06-29 22:36:00,
2013-06-29 18:41:00,77.7,65.0,29.63,WSW,256,2.0,6.0,65,0.00,,BKN120,0.00,VWS V14.01,2013-06-29 22:41:00,
2013-06-29 18:45:00,77.2,64.5,29.63,West,281,2.0,8.0,65,0.00,,SCT120,0.00,VWS V14.01,2013-06-29 22:45:00,
2013-06-29 18:50:00,77.0,64.8,29.64,WSW,249,4.0,6.0,66,0.00,,SCT120,0.00,VWS V14.01,2013-06-29 22:50:00,
2013-06-29 18:55:00,76.4,63.3,29.64,WNW,287,3.0,7.0,64,0.00,,SCT120,0.00,VWS V14.01,2013-06-29 22:55:00,
2013-06-29 19:01:00,76.1,63.5,29.64,WNW,288,1.0,6.0,65,0.00,,SCT110,0.00,VWS V14.01,2013-06-29 23:01:00,
2013-06-29 19:06:00,75.9,63.3,29.65,SE,138,0.0,2.0,65,0.00,,SCT110,0.00,VWS V14.01,2013-06-29 23:06:00,
2013-06-29 19:11:00,75.8,63.2,29.65,WSW,241,4.0,5.0,65,0.00,,SCT110,0.00,VWS V14.01,2013-06-29 23:11:00,
2013-06-29 19:16:00,75.5,62.9,29.65,West,278,4.0,5.0,65,0.00,,SCT110,0.00,VWS V14.01,2013-06-29 23:16:00,
2013-06-29 19:21:00,75.2,63.1,29.66,West,271,0.0,2.0,66,0.00,,SCT110,0.00,VWS V14.01,2013-06-29 23:21:00,
2013-06-29 19:26:00,73.5,62.3,29.67,NE,34,14.0,15.0,68,0.00,,SCT110,0.00,VWS V14.01,2013-06-29 23:26:00,
2013-06-29 19:31:00,70.4,61.7,29.67,North,1,13.0,18.0,74,0.00,,OVC110,0.00,VWS V14.01,2013-06-29 23:31:00,
2013-06-29 19:36:00,69.0,61.5,29.67,NNE,29,7.0,9.0,77,0.00,,OVC110,0.00,VWS V14.01,2013-06-29 23:36:00,
2013-06-29 19:41:00,68.3,61.5,29.68,North,10,6.0,12.0,79,0.00,,OVC110,0.00,VWS V14.01,2013-06-29 23:41:00,
2013-06-29 19:45:00,67.9,61.5,29.68,North,10,3.0,7.0,80,0.00,,OVC110,0.00,VWS V14.01,2013-06-29 23:45:00,
2013-06-29 19:50:00,67.8,61.1,29.68,NNE,29,8.0,8.0,79,0.00,,OVC120,0.00,VWS V14.01,2013-06-29 23:50:00,
2013-06-29 19:55:00,67.7,61.3,29.68,NNW,342,3.0,4.0,80,0.00,,OVC120,0.00,VWS V14.01,2013-06-29 23:55:00,
2013-06-29 20:00:00,67.7,61.0,29.68,NNE,33,2.0,3.0,79,0.00,,OVC120,0.00,VWS V14.01,2013-06-30 00:00:00,
2013-06-29 20:05:00,67.7,61.0,29.68,North,359,5.0,7.0,79,0.00,,OVC120,0.00,VWS V14.01,2013-06-30 00:05:00,
2013-06-29 20:10:00,67.7,61.0,29.68,NE,39,4.0,5.0,79,0.00,,OVC120,0.00,VWS V14.01,2013-06-30 00:10:00,
2013-06-29 20:15:00,67.6,60.9,29.69,NW,326,1.0,3.0,79,0.00,,OVC120,0.00,VWS V14.01,2013-06-30 00:15:00,
2013-06-29 20:20:00,67.5,61.1,29.69,NNE,32,1.0,1.0,80,0.00,,OVC120,0.00,VWS V14.01,2013-06-30 00:20:00,
2013-06-29 20:25:00,67.4,61.0,29.69,WNW,291,3.0,3.0,80,0.00,,OVC120,0.00,VWS V14.01,2013-06-30 00:25:00,
2013-06-29 20:30:00,67.5,61.1,29.69,NW,304,6.0,6.0,80,0.00,,OVC050,0.00,VWS V14.01,2013-06-30 00:30:00,
2013-06-29 20:35:00,67.5,61.1,29.69,NW,318,3.0,3.0,80,0.00,,OVC050,0.00,VWS V14.01,2013-06-30 00:35:00,
2013-06-29 20:40:00,67.3,60.9,29.68,NE,39,2.0,2.0,80,0.00,,OVC050,0.00,VWS V14.01,2013-06-30 00:40:00,
2013-06-29 20:45:00,67.3,60.9,29.68,NNE,15,1.0,2.0,80,0.00,,BKN065,0.00,VWS V14.01,2013-06-30 00:45:00,
2013-06-29 20:50:00,67.2,60.8,29.68,NE,51,1.0,2.0,80,0.00,,BKN065,0.00,VWS V14.01,2013-06-30 00:50:00,
2013-06-29 20:55:00,67.2,61.2,29.67,East,96,3.0,4.0,81,0.00,,BKN065,0.00,VWS V14.01,2013-06-30 00:55:00,
2013-06-29 21:00:00,66.9,60.9,29.67,ESE,113,3.0,4.0,81,0.00,,SCT120,0.00,VWS V14.01,2013-06-30 01:00:00,
2013-06-29 21:05:00,66.6,61.3,29.67,East,94,3.0,3.0,83,0.00,,SCT120,0.00,VWS V14.01,2013-06-30 01:05:00,
2013-06-29 21:10:00,66.4,61.1,29.67,ENE,75,1.0,1.0,83,0.00,,SCT120,0.00,VWS V14.01,2013-06-30 01:10:00,
2013-06-29 21:15:00,66.3,61.0,29.67,ENE,75,2.0,3.0,83,0.00,,SCT120,0.00,VWS V14.01,2013-06-30 01:15:00,
2013-06-29 21:20:00,66.3,61.3,29.67,East,88,2.0,4.0,84,0.00,,SCT120,0.00,VWS V14.01,2013-06-30 01:20:00,
2013-06-29 21:25:00,66.2,61.2,29.67,ESE,110,3.0,5.0,84,0.00,,SCT120,0.00,VWS V14.01,2013-06-30 01:25:00,
2013-06-29 21:30:00,65.9,61.3,29.67,East,92,4.0,6.0,85,0.00,,SCT120,0.00,VWS V14.01,2013-06-30 01:30:00,
2013-06-29 21:35:00,65.7,61.1,29.67,East,89,5.0,7.0,85,0.00,,SCT120,0.00,VWS V14.01,2013-06-30 01:35:00,
2013-06-29 21:40:00,65.7,61.1,29.67,ESE,107,5.0,5.0,85,0.00,,SCT120,0.00,VWS V14.01,2013-06-30 01:40:00,
2013-06-29 21:45:00,65.8,61.2,29.67,East,101,4.0,4.0,85,0.00,,SCT120,0.00,VWS V14.01,2013-06-30 01:45:00,
2013-06-29 21:50:00,65.8,61.2,29.67,East,79,2.0,4.0,85,0.00,,SCT120,0.00,VWS V14.01,2013-06-30 01:50:00,
2013-06-29 21:55:00,65.7,61.1,29.67,ENE,69,1.0,3.0,85,0.00,,SCT120,0.00,VWS V14.01,2013-06-30 01:55:00,
2013-06-29 22:00:00,65.6,61.3,29.68,East,97,1.0,2.0,86,0.00,,SCT120,0.00,VWS V14.01,2013-06-30 02:00:00,
2013-06-29 22:05:00,65.5,61.2,29.68,East,84,2.0,2.0,86,0.00,,SCT090,0.00,VWS V14.01,2013-06-30 02:05:00,
2013-06-29 22:10:00,65.4,61.1,29.68,East,82,1.0,2.0,86,0.00,,SCT090,0.00,VWS V14.01,2013-06-30 02:10:00,
2013-06-29 22:15:00,65.3,61.0,29.68,ENE,59,2.0,2.0,86,0.00,,SCT090,0.00,VWS V14.01,2013-06-30 02:15:00,
2013-06-29 22:20:00,65.4,61.1,29.69,NW,320,1.0,2.0,86,0.00,,SCT090,0.00,VWS V14.01,2013-06-30 02:20:00,
2013-06-29 22:25:00,65.3,61.0,29.69,NNW,330,3.0,3.0,86,0.00,,SCT090,0.00,VWS V14.01,2013-06-30 02:25:00,
2013-06-29 22:30:00,65.2,60.9,29.69,NNE,17,2.0,2.0,86,0.00,,SCT090,0.00,VWS V14.01,2013-06-30 02:30:00,
2013-06-29 22:35:00,65.2,60.9,29.70,NNE,26,1.0,2.0,86,0.00,,SCT090,0.00,VWS V14.01,2013-06-30 02:35:00,
2013-06-29 22:40:00,65.2,60.9,29.70,North,355,2.0,2.0,86,0.00,,SCT090,0.00,VWS V14.01,2013-06-30 02:40:00,
2013-06-29 22:45:00,65.1,61.1,29.70,NNW,345,2.0,3.0,87,0.00,,SCT090,0.00,VWS V14.01,2013-06-30 02:45:00,
2013-06-29 22:50:00,65.0,61.0,29.70,North,8,2.0,3.0,87,0.00,,SCT120,0.00,VWS V14.01,2013-06-30 02:50:00,
2013-06-29 22:55:00,65.2,61.2,29.70,NNE,19,3.0,3.0,87,0.00,,SCT120,0.00,VWS V14.01,2013-06-30 02:55:00,
2013-06-29 23:00:00,65.4,61.4,29.70,NE,39,1.0,2.0,87,0.00,,SCT120,0.00,VWS V14.01,2013-06-30 03:00:00,
2013-06-29 23:05:00,65.4,61.4,29.71,NNE,22,1.0,2.0,87,0.00,,SCT120,0.00,VWS V14.01,2013-06-30 03:05:00,
2013-06-29 23:10:00,65.4,61.4,29.71,NE,39,3.0,3.0,87,0.00,,SCT120,0.00,VWS V14.01,2013-06-30 03:10:00,
2013-06-29 23:15:00,65.4,61.4,29.71,ENE,57,2.0,2.0,87,0.00,,SCT120,0.00,VWS V14.01,2013-06-30 03:15:00,
2013-06-29 23:20:00,65.3,61.3,29.71,ENE,63,1.0,2.0,87,0.00,,SCT120,0.00,VWS V14.01,2013-06-30 03:20:00,
2013-06-29 23:25:00,65.2,61.2,29.71,ENE,60,2.0,4.0,87,0.00,,SCT120,0.00,VWS V14.01,2013-06-30 03:25:00,
2013-06-29 23:30:00,65.1,61.5,29.71,NE,37,4.0,4.0,88,0.00,,SCT120,0.00,VWS V14.01,2013-06-30 03:30:00,
2013-06-29 23:35:00,65.0,61.4,29.71,NNE,32,4.0,5.0,88,0.00,,CLR,0.00,VWS V14.01,2013-06-30 03:35:00,
2013-06-29 23:40:00,64.9,61.3,29.71,NNE,32,3.0,5.0,88,0.00,,CLR,0.00,VWS V14.01,2013-06-30 03:40:00,
2013-06-29 23:45:00,64.9,61.6,29.71,NE,51,2.0,4.0,89,0.00,,CLR,0.00,VWS V14.01,2013-06-30 03:45:00,
2013-06-29 23:50:00,64.9,61.6,29.71,NE,50,1.0,4.0,89,0.00,,CLR,0.00,VWS V14.01,2013-06-30 03:50:00,
2013-06-29 23:55:00,64.7,61.7,29.71,NE,48,3.0,3.0,90,0.00,,CLR,0.00,VWS V14.01,2013-06-30 03:55:00,